Ricardo Santana, Jr.

Ricardo Santana, Jr.

Statistiques 2026

  • Courses courues : 27
  • Nb de victoires : 7
  • Nb de places : 17
  • Écart gagnant : -
  • Réussite à la gagne : 26%
  • Réussite à la place : 63%
Musique : 1p 0p 0p 1p 0p 1p 0p 5p 4p 0p 0p 4p 0p 3p 4p 2p 0p 3p
DateRangCatégorieAlloc.Dist.HippodromeChevalPoidsSpé.
19/07/23 3 Galop 32 110€ Saratoga Run Smitty Run 55,5 Plat
19/07/23 0 Galop 76 146€ Saratoga Tempting Lady 53,5 Plat
20/07/23 4 Galop 76 146€ Saratoga Astronomico 53,5 Plat
20/07/23 6 Galop 76 146€ Saratoga Mayor Jack 53,5 Plat
20/07/23 8 Galop 91 743€ Saratoga Graded On A Curve 55 Plat
24/07/22 3 Galop 34 313€ Saratoga Icon 55,5 Plat
23/07/23 5 Galop 125 229€ Saratoga Candy Lover 53,5 Plat
23/07/23 0 Galop 45 871€ Saratoga Amani's Eagle 53 Plat
23/07/23 5 Galop 45 871€ Saratoga Lakeside Getaway 53,5 Plat
27/07/23 10 Galop 80 733€ Saratoga Charlie Tough 53,5 Plat
27/07/23 5 Galop 143 119€ Saratoga Sail By 55 Plat
27/07/23 9 Galop 80 733€ Saratoga Archivist 53,5 Plat
27/07/23 9 Galop 55 045€ Saratoga Huge Bigly 54 Plat
27/07/23 2 Galop 137 614€ Saratoga Time For Trouble 53 Plat
28/07/23 7 Galop 80 733€ Saratoga Eric From Miami 53,5 Plat
28/07/23 2 Galop 143 119€ Saratoga Fauci 55 Plat
28/07/23 8 Galop 66 055€ Saratoga Icy Stare Down 54 Plat
28/07/23 0 Galop 73 394€ Saratoga Warrior Richard 53 Plat
28/07/23 5 Galop 183 486€ Saratoga Ryvit 56 Plat
04/08/23 6 Galop 124 090€ Saratoga Metallurgic 53,5 Plat
06/08/23 8 Galop 124 090€ Saratoga Six Pack Senorita 53,5 Plat
06/08/23 8 Galop 32 727€ Saratoga Sprinklehead 55,5 Plat
06/08/23 1 Galop 124 090€ Saratoga Empire Island 53,5 Plat
06/08/23 2 Galop 45 454€ Saratoga Unaffected 53 Plat
09/08/23 2 Galop 40 909€ Saratoga Our Rosie Diamonds 53 Plat
09/08/23 7 Galop 80 000€ Saratoga Z Dancer 53 Plat
12/08/23 4 Galop 80 000€ Saratoga Apollo Code 53,5 Plat
12/08/23 2 Galop 63 636€ Saratoga Freudian 56,5 Plat
12/08/23 4 Galop 124 090€ Saratoga Informed Patriot 53,5 Plat
12/08/23 3 Galop 80 000€ Saratoga Foxy Cara 53,5 Plat
12/08/23 2 Galop 136 363€ Saratoga Stone Silent 55 Plat
12/08/23 1 Galop 181 818€ Saratoga Rhyme Schemes 54 Plat
30/08/23 4 Galop 124 090€ Saratoga Clearly A Test 53,5 Plat
27/08/23 4 Galop 80 000€ Saratoga Dusk 53,5 Plat
27/08/23 3 Galop 181 818€ Saratoga Runaway Rumour 55 Plat
27/08/23 2 Galop 181 818€ Saratoga Stellamaris 53 Plat
27/08/23 8 Galop 86 363€ Saratoga Shared Success 56,5 Plat
27/08/23 10 Galop 86 363€ Saratoga Ranting 54 Plat
31/08/23 6 Galop 36 363€ Saratoga Saline River 53,5 Plat
31/08/23 6 Galop 159 090€ Saratoga Wine Collector 55 Plat
31/08/23 1 Galop 63 636€ Saratoga Locke And Key 56 Plat
04/09/23 4 Galop 138 425€ Saratoga Toned Up 56 Plat
04/09/23 10 Galop 81 481€ Saratoga Unaffected 54 Plat
04/09/23 8 Galop 87 962€ Saratoga Thank You Jon 54 Plat
04/09/23 1 Galop 81 481€ Saratoga Bonne Chance 53,5 Plat
04/09/23 6 Galop 66 666€ Saratoga Float On 53 Plat
30/08/23 3 Galop 141 818€ Saratoga Shezz Koldazice 56,5 Plat
30/08/23 2 Galop 75 454€ Saratoga Tempting Lady 53,5 Plat
24/08/23 7 Galop 124 090€ Saratoga Atlantic Dancer 56 Plat
04/09/23 3 Galop 81 481€ Saratoga Red Burgundy 52 Plat